Other Surface Observations
Issued by NWS Great Falls, MT

Home | Current Version | Previous Version | Text Only | Print | Product List | Glossary On
Versions: 1 2 3 4 5 6 7 8 9 10 11 12 13 14 15 16 17 18 19 20 21 22 23 24 25 26 27 28 29 30 31 32 33 34 35 36 37 38 39 40 41 42 43 44 45 46 47 48 49 50
525
SXUS55 KTFX 032023
OSOTFX

AREA AWOS OBSERVATIONS
NATIONAL WEATHER SERVICE GREAT FALLS MT
0123 PM MST Sat Dec 03 2016

METAR K6S0 032020Z AUTO 26025G35KT 10SM FEW024 FEW045 SCT055 04/M09 A2994 RMK A01



USA.gov is the U.S. government's official web portal to all federal, state and local government web resources and services.